Weather in Besharyk

Uzbekistan     40°26′11″N   70°36′22″E
temp.,
°C
wind,
m/s
gust,
m/s
humid.,
%
clouds,
%
prec.,
mm/h
press.,
hPa
HPBL,
m
18 april, sun
sun1823:00+22wsw71128100 0.0 1014394
02:00+20wsw71132100 0.0 1014336
05:00+19wsw81138100 0.0 1015335
08:00+20wsw9934100 0.0 1017721
11:00+23wsw11924100 0.0 10181785
14:00+25wsw111021100 0.0 10172709
17:00+24wsw9921100 0.0 10172195
20:00+21wsw812315 0.0 1018326
19 april, mon
mon1923:00+19wsw57375 0.0 1018128
02:00+17ne22425 0.0 101836
05:00+15e2352100 0.0 101927
08:00+17ne4643100 0.0 1019457
11:00+23ene55295 0.0 10161437
14:00+25ene32215 0.0 10132182
17:00+26e211811 0.0 10112044
20:00+23ene2224100 0.0 101113
20 april, tue
tue2023:00+21s112674 0.0 101111
02:00+19sw1130100 0.0 101011
05:00+17ne2235100 0.0 101019
08:00+20ne1130100 0.0 1011207
11:00+24wsw232253 0.0 1009948
14:00+28wsw10101777 0.0 10073326
17:00+23wsw131430100 0.0 10082045
20:00+19sw121343100 0.0 1010923
21 april, wed
wed2123:00+18sw9134599 0.0 1009391
02:00+18sw5945100 0.0 1008172
05:00+17wnw1248100 0.0 100820
08:00+18ssw3645100 0.0 1009335
11:00+21w131839100 0.1 10112078
14:00+19wsw1118475 0.3 10112053
17:00+16sw1516584 0.3 1013952
20:00+14sw1416614 0.0 1016696
22 april, thu
thu2223:00+13wsw1013580 0.0 1017475
02:00+12wsw811560 0.0 1018362
05:00+11wsw69620 0.0 1020279
08:00+13wsw88480 0.0 1022611
11:00+18wsw86250 0.0 10211413
14:00+21sw1110190 0.0 10201319
17:00+21sw1313190 0.0 1019982
20:00+16sw1215330 0.0 1021522